FW9690 Weather Reports


time (UTC)temp
F
wind
direction
speed
knots
gust
knots
rain 1hr
in
rain 24hr
in
rain mn
in
humidity
%
barometer
mb
20260507154506 53 93 5.2 12.2 0.00 0.00 0.00 73 998.8
20260507153002 52 110 9.6 13.0 0.00 0.00 0.00 74 998.8
20260507151501 52 111 9.6 13.0 0.00 0.00 0.00 74 998.9
20260507150100 52 66 7.8 12.2 0.00 0.00 0.00 75 998.8
20260507150001 52 84 8.7 12.2 0.00 0.00 0.00 75 998.9
20260507144516 52 80 7.8 11.3 0.00 0.00 0.00 75 998.9
20260507143014 51 98 10.4 13.0 0.00 0.00 0.00 76 999.0
20260507141513 51 81 7.8 11.3 0.00 0.00 0.00 76 999.1
20260507140012 51 74 6.1 11.3 0.00 0.00 0.00 77 999.1
20260507134557 51 76 8.7 12.2 0.00 0.00 0.00 77 999.1
20260507133056 51 63 10.4 15.6 0.00 0.00 0.00 77 998.8
20260507131554 51 85 12.2 14.8 0.00 0.00 0.00 77 998.6
20260507124549 50 84 8.7 14.8 0.00 0.00 0.00 78 998.0
20260507123050 50 57 10.4 13.9 0.00 0.00 0.00 78 997.8
20260507121547 50 71 10.4 15.6 0.00 0.00 0.00 78 997.5
20260507120047 50 54 11.3 14.8 0.00 0.00 0.00 77 997.4
20260507114544 50 84 10.4 17.4 0.00 0.00 0.00 76 996.9
20260507113042 50 69 11.3 16.5 0.00 0.00 0.00 75 997.0
20260507111543 51 80 13.0 20.0 0.00 0.00 0.00 73 996.6
20260507110037 51 65 14.8 20.9 0.00 0.00 0.00 72 996.6
20260507104543 51 80 12.2 19.1 0.00 0.00 0.00 71 996.3
20260507103041 52 93 12.2 20.0 0.00 0.00 0.00 71 996.2
20260507101545 52 79 13.9 19.1 0.00 0.00 0.00 70 996.3
20260507100040 52 59 13.0 18.2 0.00 0.00 0.00 69 996.2
20260507094540 53 70 12.2 17.4 0.00 0.00 0.00 68 995.9
20260507093034 53 88 12.2 16.5 0.00 0.00 0.00 68 995.8
20260507091627 53 80 9.6 17.4 0.00 0.00 0.00 66 995.7
20260507090032 54 59 9.6 14.8 0.00 0.00 0.00 65 995.6
20260507084519 55 43 10.4 13.0 0.00 0.00 0.00 62 995.6
20260507083009 55 319 7.0 13.0 0.00 0.00 0.00 52 995.6
20260507081515 57 335 7.0 9.6 0.00 0.00 0.00 46 995.4
20260507074502 58 321 7.8 10.4 0.00 0.00 0.00 53 994.8
20260507073103 61 93 4.3 6.1 0.00 0.00 0.00 50 994.4
20260507071601 61 141 0.9 6.1 0.00 0.00 0.00 48 994.5
20260507064552 62 104 0.9 13.0 0.00 0.00 0.00 39 993.8
20260507063051 64 270 6.1 7.8 0.00 0.00 0.00 27 993.4
20260507061647 66 275 7.0 8.7 0.00 0.00 0.00 25 993.3
20260507060052 66 252 7.0 8.7 0.00 0.00 0.00 25 993.0
20260507054551 65 273 7.0 8.7 0.00 0.00 0.00 26 993.0
20260507053054 64 269 7.0 8.7 0.00 0.00 0.00 27 992.8
20260507051549 64 281 7.0 9.6 0.00 0.00 0.00 28 992.8
20260507050049 64 280 8.7 11.3 0.00 0.00 0.00 29 992.7
20260507044606 64 273 10.4 11.3 0.00 0.00 0.00 30 992.6
20260507043059 66 291 6.1 7.8 0.00 0.00 0.00 26 992.5
20260507041554 68 282 6.1 7.0 0.00 0.00 0.00 23 992.3
20260507040052 67 281 3.5 6.1 0.00 0.00 0.00 24 992.2
20260507034558 67 279 2.6 6.1 0.00 0.00 0.00 25 992.0
20260507033049 67 265 2.6 7.8 0.00 0.00 0.00 25 991.8
20260507031550 67 243 8.7 9.6 0.00 0.00 0.00 25 991.6
20260507030054 68 244 7.8 9.6 0.00 0.00 0.00 24 991.3
20260507024543 69 252 7.0 9.6 0.00 0.00 0.00 24 991.2
20260507023039 69 243 7.0 8.7 0.00 0.00 0.00 24 990.9
20260507021537 71 254 8.7 9.6 0.00 0.00 0.00 23 990.7
20260507020046 73 248 7.8 11.3 0.00 0.00 0.00 20 990.2
20260507014553 74 246 10.4 13.9 0.00 0.00 0.00 20 989.9
20260507013058 75 244 10.4 18.2 0.00 0.00 0.00 19 989.8
20260507011550 76 229 11.3 16.5 0.00 0.00 0.00 18 989.6
20260507010048 77 237 13.0 22.6 0.00 0.00 0.00 17 989.6
20260507004540 78 228 15.6 24.3 0.00 0.00 0.00 17 989.4
20260507003045 78 246 19.1 25.2 0.00 0.00 0.00 17 989.2
20260507001542 79 226 21.7 30.4 0.00 0.00 0.00 17 988.9
20260507000040 79 221 16.5 30.4 0.00 0.00 0.00 17 988.8
20260506234532 79 225 18.2 27.8 0.00 0.00 0.00 17 988.9
20260506233031 79 225 17.4 28.7 0.00 0.00 0.00 16 988.7
20260506231530 80 226 13.0 24.3 0.00 0.00 0.00 17 988.7
20260506230032 79 198 13.9 20.9 0.00 0.00 0.00 18 988.6
20260506224547 80 241 20.0 27.8 0.00 0.00 0.00 18 988.4
20260506223037 79 233 16.5 21.7 0.00 0.00 0.00 18 988.4
20260506221534 79 225 16.5 26.1 0.00 0.00 0.00 18 988.4
20260506220037 79 235 14.8 22.6 0.00 0.00 0.00 19 988.6
20260506214530 80 248 14.8 20.9 0.00 0.00 0.00 19 988.7
20260506213026 79 232 13.9 19.1 0.00 0.00 0.00 20 988.9
20260506211527 78 203 11.3 19.1 0.00 0.00 0.00 21 988.9
20260506210024 78 233 11.3 20.0 0.00 0.00 0.00 22 989.1
20260506204532 77 202 13.0 19.1 0.00 0.00 0.00 24 989.4
20260506203033 78 198 13.0 21.7 0.00 0.00 0.00 24 989.7
20260506201531 76 196 13.0 20.9 0.00 0.00 0.00 25 989.8
20260506200032 77 263 15.6 21.7 0.00 0.00 0.00 25 990.0
20260506194611 75 225 12.2 19.1 0.00 0.00 0.00 27 990.1
20260506193009 75 214 13.0 20.9 0.00 0.00 0.00 26 990.2
20260506191509 75 248 12.2 22.6 0.00 0.00 0.00 27 990.4
20260506190009 74 232 13.9 20.9 0.00 0.00 0.00 27 990.6
20260506184529 75 262 10.4 17.4 0.00 0.00 0.00 28 990.7
20260506183024 74 267 12.2 18.2 0.00 0.00 0.00 28 990.9
20260506181521 73 229 8.7 15.6 0.00 0.00 0.00 35 991.1
20260506180024 70 128 5.2 13.9 0.00 0.00 0.00 39 991.4
20260506174515 69 138 5.2 14.8 0.00 0.00 0.00 42 991.6
20260506173014 69 121 8.7 12.2 0.00 0.00 0.00 43 991.7
20260506171513 68 110 7.0 12.2 0.00 0.00 0.00 45 991.7
20260506170015 68 96 4.3 11.3 0.00 0.00 0.00 46 991.7
20260506164603 67 92 7.0 11.3 0.00 0.00 0.00 46 991.8
20260506163104 69 88 1.7 7.0 0.00 0.00 0.00 43 991.6
20260506161605 67 28 7.8 13.9 0.00 0.00 0.00 47 991.6
20260506160052 66 92 13.9 20.0 0.00 0.00 0.00 49 991.4